Theta_e
269 271 272 272 273 273 272 273 274 275 277 277 276 278 280 282 290 299 310 313 314 315 316 316 317 318 317 314 311 307 302 301 304 302 301 301 299 297 300 305 307 308 310
266 268 270 270 271 271 271 272 273 274 275 276 276 278 278 283 290 296 298 311 312 313 316 316 317 316 313 309 307 306 304 304 307 305 305 298 301 298 296 298 303 302 305
263 265 268 268 269 269 270 271 272 273 274 274 275 276 279 280 286 285 290 296 302 313 316 316 316 313 312 308 307 307 307 305 305 305 300 298 295 294 294 294 297 300 300
265 265 266 266 267 269 270 270 271 271 273 273 273 273 274 274 277 280 285 291 296 310 315 316 314 312 311 308 308 309 310 307 305 301 302 301 303 293 292 293 292 296 297
265 264 265 266 267 268 268 269 269 270 271 271 272 272 272 274 275 278 281 287 295 310 313 315 313 311 310 309 308 309 310 309 306 300 302 301 297 298 298 288 290 293 293
264 265 266 266 266 266 267 267 268 268 270 270 270 270 270 271 273 274 277 281 286 295 311 313 312 311 310 309 308 310 309 309 303 302 303 302 300 299 296 292 290 290 289
262 263 263 263 264 265 264 266 267 267 268 269 269 270 270 271 271 273 274 276 282 289 296 310 311 310 310 309 309 309 308 306 303 301 302 304 302 303 301 298 293 287 288
262 262 262 262 263 264 264 264 265 265 267 267 268 269 270 270 271 272 273 276 279 284 289 294 310 311 310 309 308 308 307 305 301 301 301 300 302 303 302 298 291 285 284
260 261 262 261 261 262 262 262 264 265 266 267 267 267 268 269 270 271 273 275 278 281 285 290 299 310 310 309 308 307 305 303 301 300 301 300 300 300 300 298 298 294 284
260 260 260 261 261 261 262 262 263 264 265 266 266 267 267 269 269 271 272 273 276 278 282 287 296 308 308 308 307 307 305 302 301 301 299 298 298 297 296 296 297 290 289
256 258 259 259 259 260 260 261 261 262 263 265 265 265 266 268 269 269 271 272 275 277 280 285 292 304 307 307 306 305 303 301 299 299 298 297 297 296 295 295 291 288 287
255 256 257 258 258 258 259 259 260 260 262 263 264 264 266 267 267 268 270 272 273 276 279 284 290 300 305 306 306 303 302 300 298 298 298 294 295 293 293 293 289 287 285
255 255 256 257 257 257 258 258 259 260 261 262 263 263 263 265 265 267 269 271 273 275 278 282 286 297 301 304 305 303 301 299 298 298 297 294 293 292 291 291 287 285 286
255 255 255 255 255 257 257 258 259 260 260 261 261 262 262 264 265 267 268 270 272 274 277 280 285 293 297 299 302 302 301 301 300 298 298 294 293 292 289 288 286 286 284
257 257 257 256 255 255 257 258 259 260 260 260 261 261 262 264 265 266 268 269 271 273 276 279 284 289 294 296 297 298 299 299 297 297 296 293 293 294 292 289 287 285 284
259 260 260 260 259 256 257 259 259 259 259 259 260 260 262 263 263 265 267 269 270 272 275 277 281 285 289 295 299 297 293 293 293 293 293 293 293 293 294 293 292 289 284
258 259 259 258 257 255 257 255 256 258 258 258 259 260 260 262 263 265 266 268 269 272 275 277 281 284 286 293 298 298 292 291 291 290 289 290 292 293 292 293 293 292 292
259 260 257 256 254 250 252 253 255 256 257 258 259 260 260 261 263 264 265 267 269 272 275 277 280 284 285 290 295 295 288 288 289 289 289 290 290 291 291 289 288 287 287
255 253 252 250 250 251 252 251 254 256 257 258 258 259 259 260 262 264 265 267 269 272 276 277 279 283 285 289 292 288 287 285 285 287 289 289 289 292 293 288 285 284 285
252 253 253 248 247 254 247 249 253 254 256 258 259 259 260 261 262 264 264 267 270 273 276 277 279 283 284 289 291 288 285 285 285 286 287 292 290 294 292 287 286 284 285
254 251 250 252 254 253 248 251 251 253 256 259 259 260 261 261 264 264 266 267 269 273 274 275 279 281 283 286 289 288 285 285 285 285 286 289 293 294 292 290 287 286 287
256 255 254 255 256 254 252 252 251 256 257 257 258 259 260 262 264 263 265 267 269 272 273 273 275 279 282 287 288 288 288 288 285 285 287 290 294 293 292 290 291 291 289
258 255 254 256 256 255 253 251 255 256 256 255 256 258 260 263 262 263 263 265 268 271 272 273 273 276 280 283 287 289 289 289 285 285 289 292 293 292 291 292 292 289 284
259 259 256 257 257 257 260 256 256 255 251 252 254 256 258 262 261 263 263 265 267 270 271 272 273 275 278 281 282 283 285 288 286 288 290 291 292 290 291 291 287 284 284
261 261 260 260 260 260 259 258 259 252 252 250 252 253 259 257 259 261 262 265 268 272 271 273 274 273 276 280 286 286 283 284 286 285 284 284 284 284 281 281 281 282 282
261 260 260 261 260 259 259 259 258 254 249 249 254 250 254 255 258 259 260 267 270 273 275 277 277 276 280 282 284 286 288 288 288 284 283 281 279 279 279 279 278 279 279
Wind_Speed
13 15 17 18 19 18 20 21 22 22 17 15 16 15 14 16 12 11 13 5 5 6 8 5 5 5 7 8 11 10 14 7 10 11 10 10 8 12 9 8 9 14 9
17 18 19 19 18 19 19 21 20 21 16 13 13 10 13 9 14 10 15 7 6 6 7 7 7 8 7 11 10 14 8 5 7 7 9 4 4 8 11 11 8 12 7
16 18 19 19 19 20 20 19 20 20 17 18 13 12 10 9 10 14 13 12 15 7 7 8 7 8 9 11 13 14 15 11 2 4 6 5 3 3 7 11 8 11 8
12 15 17 19 18 18 18 19 19 19 16 18 14 16 11 12 11 13 14 14 17 10 7 9 8 10 8 11 12 12 14 11 13 2 3 1 11 6 5 5 7 8 9
13 15 15 16 15 16 16 16 17 18 18 17 16 12 13 11 11 12 18 16 15 8 8 10 11 10 8 10 12 12 10 9 9 3 5 11 5 2 8 6 1 6 6
12 14 15 16 13 14 16 17 19 19 19 18 17 16 16 15 12 15 14 13 12 11 7 8 11 12 10 12 11 10 12 11 8 6 10 11 9 12 9 7 4 6 4
10 12 14 16 18 17 17 15 18 19 18 18 18 17 16 16 16 14 12 18 12 10 12 6 10 11 12 12 12 11 11 10 11 11 8 4 5 8 10 11 8 5 1
9 10 11 11 14 18 16 17 18 19 19 19 19 16 15 9 10 11 12 12 12 12 16 13 9 13 14 12 11 8 9 8 10 13 10 6 9 7 11 10 12 5 3
10 11 12 10 12 14 15 15 17 19 18 19 17 18 15 15 14 15 13 11 15 13 14 14 15 10 13 15 14 10 10 11 10 11 10 8 10 7 8 9 13 12 7
10 11 9 10 9 11 13 13 13 15 17 18 16 15 17 16 15 14 15 15 15 16 16 13 14 7 12 14 15 11 11 12 9 9 12 10 8 8 8 10 7 3 6
8 10 11 8 8 9 11 12 13 15 16 17 17 18 17 17 16 14 14 15 17 16 16 13 13 11 11 13 14 13 14 14 13 12 13 12 12 9 8 9 6 4 4
8 9 9 9 8 10 10 12 12 13 15 15 15 16 17 16 16 16 17 17 17 16 16 16 14 12 9 12 14 13 14 16 15 14 14 14 10 13 12 10 9 7 4
9 8 8 8 8 9 10 11 12 13 13 15 15 15 17 17 18 18 17 18 17 16 14 15 14 10 6 10 13 14 15 15 16 16 16 14 15 12 11 12 9 6 5
9 7 7 7 7 8 8 10 12 12 14 14 15 16 15 16 17 18 17 17 16 16 13 14 14 11 6 4 7 11 14 14 13 15 15 16 16 16 14 12 12 9 9
8 6 8 7 7 7 9 9 9 12 12 13 13 15 16 16 16 16 17 17 18 15 14 13 12 11 5 3 6 8 11 12 12 12 13 13 15 18 16 11 12 12 8
8 7 8 8 9 8 9 10 10 12 12 11 14 14 15 17 17 18 17 16 17 16 15 14 12 8 4 8 9 9 8 9 11 12 11 11 16 18 22 20 24 21 16
9 8 8 7 7 8 8 9 9 10 10 12 13 14 15 16 17 17 16 18 17 16 14 14 13 8 6 9 12 16 8 9 9 10 11 9 9 16 14 18 20 20 19
8 7 6 7 8 6 8 8 7 8 8 9 12 13 14 15 16 16 16 17 15 16 13 15 13 7 6 10 11 13 6 6 9 11 12 13 13 15 17 15 12 10 8
7 7 6 6 7 8 7 7 8 9 8 10 12 13 13 15 16 17 17 16 15 16 15 14 12 11 4 9 12 9 6 5 6 8 11 12 14 21 24 17 15 12 8
7 7 6 4 5 8 4 5 7 8 10 12 13 12 13 13 14 16 17 16 15 14 12 13 12 17 11 7 8 7 3 6 5 6 8 20 17 28 27 17 18 16 12
8 5 5 7 8 6 2 6 6 7 7 10 12 13 12 12 13 14 13 15 16 14 15 15 13 14 15 9 5 4 1 3 6 7 7 7 24 28 28 24 15 18 17
6 5 6 7 7 4 3 6 6 6 6 7 9 12 13 11 10 12 13 14 15 14 14 15 14 12 13 17 6 2 5 5 5 7 7 9 25 23 23 18 27 31 23
6 4 6 7 6 5 5 5 6 5 5 6 7 9 10 11 12 12 12 12 13 11 13 12 12 12 11 9 17 10 2 8 2 4 11 21 25 27 18 26 29 26 13
6 4 4 6 7 5 7 8 5 3 3 6 6 7 7 12 10 8 8 8 10 10 11 11 12 11 11 10 5 5 5 5 5 10 12 14 15 16 17 20 14 7 9
5 5 6 7 9 6 6 6 5 4 3 3 5 5 5 7 8 8 8 7 8 11 10 9 8 11 12 14 19 6 2 2 4 7 5 7 7 8 8 9 8 8 8
7 6 7 7 8 7 7 6 5 5 3 3 3 4 2 5 6 7 9 14 16 17 19 22 17 10 22 27 24 22 14 6 9 5 8 8 9 10 10 10 9 8 12
Wind_Direction
341 348 353 354 353 355 351 351 348 348 346 349 343 341 333 326 310 321 327 266 236 189 164 170 182 175 160 148 141 132 128 118 142 103 82 62 39 43 36 44 47 63 78
349 352 351 354 355 349 350 347 349 346 344 345 335 327 318 308 304 299 329 300 265 216 174 167 180 168 141 140 147 147 137 130 178 136 122 112 29 34 34 40 39 57 56
342 343 348 349 349 351 347 345 343 341 342 341 334 329 317 329 335 338 325 326 319 242 196 173 172 161 161 160 161 158 151 155 193 105 133 149 142 113 12 27 20 58 51
343 341 344 345 347 344 341 341 339 338 340 341 339 337 332 326 320 312 309 315 286 257 207 176 170 169 167 165 170 172 164 158 157 132 43 342 122 127 95 16 15 42 45
343 341 341 338 338 341 342 338 334 336 336 341 340 334 328 327 309 324 317 303 324 252 222 185 168 173 170 175 171 174 173 174 153 139 142 108 72 26 128 119 144 57 33
339 337 336 341 336 340 343 340 338 337 339 339 334 333 330 328 323 335 320 324 316 320 245 199 177 177 175 174 176 181 169 165 131 137 147 154 159 164 135 125 134 109 51
332 337 340 339 338 344 341 338 338 334 336 335 334 334 327 327 332 318 330 312 314 322 312 279 191 180 176 175 173 173 169 157 149 148 151 142 119 150 125 134 131 105 105
330 330 331 329 330 335 338 337 335 332 335 334 332 329 327 328 310 320 324 299 314 308 308 313 257 188 174 173 170 170 161 153 145 144 143 127 138 150 147 146 144 104 83
323 324 326 328 326 328 333 333 331 329 332 331 329 326 329 330 324 324 308 323 308 312 304 305 285 204 182 172 171 169 159 156 148 147 141 143 141 143 148 147 163 148 146
314 319 319 318 320 320 322 328 326 326 325 327 330 325 324 327 320 325 328 311 312 306 314 310 288 220 187 175 173 172 162 158 151 152 144 143 152 147 150 155 180 124 138
299 307 311 310 307 313 321 324 329 329 329 328 330 326 326 328 324 323 316 323 314 317 306 299 310 259 189 179 179 171 161 159 155 155 158 150 157 159 163 158 167 155 121
287 293 299 308 319 320 322 324 325 327 326 325 325 324 325 325 327 325 326 319 322 316 315 316 312 268 205 180 178 164 167 164 165 166 162 156 155 163 161 168 166 162 141
305 296 307 312 314 318 320 320 321 323 323 326 326 325 327 334 328 321 322 329 319 314 320 320 314 271 237 184 181 165 168 169 171 170 163 168 162 168 169 171 164 142 125
287 289 303 300 301 310 310 316 317 323 326 328 328 326 328 324 321 322 328 320 316 316 333 319 309 298 281 204 179 168 169 173 174 173 174 168 172 173 169 162 159 149 129
295 292 303 300 299 310 317 318 319 323 326 326 327 326 323 324 324 326 330 326 320 322 325 320 315 310 280 239 160 158 166 166 167 173 172 175 175 174 170 156 157 145 132
286 291 294 303 312 308 315 321 321 323 323 322 322 324 329 331 330 328 325 327 323 326 329 327 314 311 296 253 195 155 159 150 158 162 168 167 163 162 170 174 164 162 153
281 281 282 287 293 298 309 309 311 315 321 322 325 331 333 329 327 329 330 330 327 324 334 325 317 324 304 289 226 181 162 155 163 158 158 162 176 168 167 178 170 166 169
265 272 282 292 288 292 302 303 312 318 318 325 328 328 331 330 329 329 333 324 328 330 341 327 329 318 299 289 263 168 133 146 165 163 167 166 164 169 160 150 150 138 143
244 244 257 263 281 288 292 311 318 326 326 333 330 328 330 327 329 332 329 334 333 335 348 331 332 338 318 300 273 114 102 129 148 157 159 161 159 169 157 141 136 115 112
237 260 267 259 272 278 302 325 314 327 330 332 328 326 325 326 327 331 335 332 331 344 345 337 347 0 5 323 113 118 129 150 146 139 154 173 164 165 158 144 141 130 136
257 240 242 251 262 278 293 294 309 312 305 321 323 328 332 330 336 329 339 332 342 349 356 354 353 5 7 14 91 119 35 165 154 153 157 169 171 169 160 152 150 143 138
269 250 253 258 261 241 201 274 290 286 307 322 325 331 332 330 339 336 341 335 344 352 3 2 356 1 359 0 355 331 174 182 174 154 152 169 160 159 161 145 140 139 130
268 239 231 265 266 243 203 253 257 292 315 328 327 329 328 336 340 345 343 337 344 350 357 2 358 352 355 352 6 14 158 155 106 129 158 166 156 147 141 143 143 135 132
263 242 242 254 267 232 238 220 253 256 319 321 321 323 329 349 340 341 335 331 340 345 354 360 2 347 354 350 348 1 12 106 133 148 148 158 147 128 134 138 135 132 134
266 257 252 255 259 244 234 230 224 175 263 302 309 321 331 336 331 339 332 331 331 349 354 355 2 349 357 355 8 12 7 19 137 127 113 118 122 114 104 105 119 123 123
280 273 261 259 259 245 239 225 199 180 191 277 302 306 342 333 337 335 336 350 354 355 1 0 6 359 360 8 10 21 35 119 115 109 120 103 108 114 120 118 114 117 125